Probability
0 0 0 0 0 0 0 0 0 0 0 0 0 0 0 0 0 0 0 0 0 0 0 0 0 0 0 0 0 0 0 0 0 0 0 0 0 0 0 0 0 0 0 0
0 0 0 0 0 0 0 0 0 0 0 0 0 0 0 0 0 0 0 0 0 0 0 0 0 0 0 0 0 0 0 0 0 0 0 0 0 0 0 0 0 0 0 0
0 0 0 0 0 0 0 0 0 0 0 0 0 0 0 0 0 0 0 0 0 0 0 0 0 0 0 0 0 0 0 0 0 0 0 0 0 0 0 0 0 0 0 0
0 0 0 0 0 0 0 0 0 0 0 0 0 0 0 0 0 0 0 0 0 0 0 0 0 0 0 0 0 0 0 0 0 0 0 0 0 0 0 0 0 0 0 0
0 0 0 0 0 0 0 0 0 0 0 0 0 0 0 0 0 0 0 0 0 0 0 0 0 0 0 0 0 0 0 0 0 0 0 0 0 0 0 0 0 0 0 0
0 0 0 0 0 0 0 0 0 0 0 0 0 0 0 0 0 0 0 0 0 0 0 0 0 0 0 0 0 0 0 0 0 0 0 0 0 0 0 0 0 0 0 0
0 0 0 0 0 0 0 0 0 0 0 0 0 0 0 0 0 0 0 0 0 0 0 0 0 0 0 0 0 0 0 0 0 0 0 0 0 0 0 0 0 0 0 0
0 0 0 0 0 0 0 0 0 0 0 0 0 0 0 0 0 0 0 0 0 0 0 0 0 0 0 0 0 0 0 0 0 0 0 0 0 0 0 0 0 0 0 0
0 0 0 0 0 0 0 0 0 0 0 0 0 0 0 0 0 0 0 0 0 0 0 0 0 0 0 0 0 0 0 0 0 0 0 0 0 0 0 0 0 0 0 0
0 0 0 0 0 0 0 0 0 0 0 0 0 0 0 0 0 0 0 0 0 0 0 0 0 0 0 0 0 0 0 0 0 0 0 0 0 0 0 0 0 0 0 0
0 0 0 0 0 0 0 0 0 0 0 0 0 0 0 0 0 0 0 0 0 0 0 0 0 0 0 0 0 0 0 0 0 0 0 0 0 0 0 0 0 0 0 0
0 0 0 0 0 0 0 0 0 0 0 0 0 0 0 0 0 0 0 0 0 0 0 0 0 0 0 0 0 0 0 0 0 0 0 0 0 0 0 0 0 0 0 0
0 0 0 0 0 0 0 0 0 0 0 0 0 0 0 0 0 0 0 0 0 0 0 0 0 0 0 0 0 0 0 0 0 0 0 0 0 0 0 0 0 0 0 0
0 0 0 0 0 0 0 0 0 0 0 0 0 0 0 0 0 0 0 0 0 0 0 0 0 0 0 0 0 0 0 0 0 0 0 0 0 0 0 0 0 0 0 0
0 0 0 0 0 0 0 0 0 0 0 0 0 0 0 0 0 0 0 0 0 0 0 0 0 0 0 0 0 0 0 0 0 0 0 0 0 0 0 0 0 0 0 0
0 0 0 0 0 0 0 0 0 0 0 0 0 0 0 0 0 0 0 0 0 0 0 0 0 0 0 0 0 0 0 0 0 0 0 0 0 0 0 0 0 0 0 0
0 0 0 0 0 0 0 0 0 0 0 0 0 0 0 0 0 0 0 0 0 0 0 0 0 0 0 0 0 0 0 0 0 0 0 0 0 0 0 0 0 0 0 0
0 0 0 0 0 0 0 0 0 0 0 0 0 0 0 0 0 0 0 0 0 0 0 0 0 0 0 0 0 0 0 0 0 0 0 0 0 0 0 0 0 0 0 0
0 0 0 0 0 0 0 0 0 0 0 0 0 0 0 0 0 0 0 0 0 0 0 0 0 0 0 0 0 0 0 0 0 0 0 0 0 0 0 0 0 0 0 0
0 0 0 0 0 0 0 0 0 0 0 0 0 0 0 0 0 0 0 0 0 0 0 0 0 0 0 0 0 0 0 0 0 0 0 0 0 0 0 0 0 0 0 0
0 0 0 0 0 0 0 0 0 0 0 0 0 0 0 0 0 0 0 0 0 0 0 0 0 0 0 0 0 0 0 0 0 0 0 0 0 0 0 0 0 0 0 0
0 0 0 0 0 0 0 0 0 0 0 0 0 0 0 0 0 0 0 0 0 0 0 0 0 0 0 0 0 0 0 0 0 0 0 0 0 0 0 0 0 0 0 0
0 0 0 0 0 0 0 0 0 0 0 0 0 0 0 0 0 0 0 0 0 0 0 0 0 0 0 0 0 0 0 0 0 0 0 0 0 0 0 0 0 0 0 0
0 0 0 0 0 0 0 0 0 0 0 0 0 0 0 0 0 0 0 0 0 0 0 0 0 0 0 0 0 0 0 0 0 0 0 0 0 0 0 0 0 0 0 0
0 0 0 0 0 0 0 0 0 0 0 0 0 0 0 0 0 0 0 0 0 0 0 0 0 0 0 0 0 0 0 0 0 0 0 0 0 0 0 0 0 0 0 0
0 0 0 0 0 0 0 0 0 0 0 0 0 0 0 0 0 0 0 0 0 0 0 0 0 0 0 0 0 0 0 0 0 0 0 0 0 0 0 0 0 0 0 0
0 0 0 0 0 0 0 0 0 0 0 0 0 0 0 0 0 0 0 0 0 0 0 0 0 0 0 0 0 0 0 0 0 0 0 0 0 0 0 0 0 0 0 0
Wind_Speed
14 14 13 15 23 20 15 12 11 10 18 30 18 10 11 12 14 15 15 15 15 14 12 11 11 10 9 9 8 8 8 7 6 5 4 3 3 3 3 3 4 5 6 7
12 10 16 14 23 20 14 11 9 13 19 22 6 4 8 11 15 16 16 16 14 14 13 12 12 11 10 9 8 8 8 6 6 4 4 3 3 3 3 4 5 5 6 6
3 9 12 9 18 15 8 13 16 20 22 8 5 4 5 10 16 18 17 16 16 14 13 12 11 12 11 9 8 8 7 6 5 4 4 3 3 4 4 4 5 5 6 6
1 3 2 2 14 23 23 25 26 19 5 8 8 6 6 3 5 9 11 12 12 12 11 10 9 10 10 9 8 8 7 6 5 4 4 3 3 3 3 3 4 5 6 7
2 1 1 1 4 12 14 10 5 6 8 7 6 5 8 9 6 7 9 10 11 11 12 12 11 11 11 9 8 7 6 5 4 4 3 3 3 3 3 3 4 4 5 6
3 3 2 1 1 1 1 2 2 9 13 12 6 5 1 4 9 13 13 12 14 13 13 13 9 10 11 8 7 6 5 5 4 3 3 2 3 3 2 3 5 5 6 6
0 2 5 3 1 2 3 5 3 9 11 8 4 6 10 8 10 12 13 13 13 13 11 9 8 10 10 8 6 5 5 4 4 3 3 3 3 3 3 5 5 6 6 6
3 2 6 3 1 1 3 1 3 5 6 10 12 14 13 11 11 12 12 11 12 11 9 7 8 10 9 7 6 5 5 4 4 4 4 4 5 5 4 4 5 6 6 5
7 7 3 1 1 1 2 4 4 7 11 17 17 15 12 10 9 9 10 10 9 11 9 6 6 8 9 6 5 5 5 5 4 4 4 4 4 4 4 5 4 5 6 6
2 2 1 1 2 2 3 5 8 12 14 17 18 15 12 10 9 9 9 9 9 10 9 6 6 6 7 6 5 5 5 4 3 3 4 4 3 3 3 4 5 6 6 7
3 2 1 2 1 4 8 12 13 12 12 15 17 14 12 10 9 8 8 7 7 8 8 7 6 6 5 5 5 5 4 3 2 2 2 3 3 4 4 5 7 8 6 6
7 8 6 5 7 8 12 12 14 16 13 9 10 12 11 9 7 7 8 7 7 7 8 6 6 6 5 5 5 4 3 1 1 2 3 3 4 5 8 11 16 16 15 12
3 4 4 7 7 5 10 11 13 13 14 12 9 11 11 8 6 8 8 8 8 8 7 7 6 5 5 4 5 4 2 1 2 3 3 4 4 4 7 10 12 14 17 18
8 9 7 5 8 10 14 15 16 15 13 11 11 10 10 9 8 8 6 6 7 8 7 6 6 5 4 4 4 3 2 3 3 2 3 3 4 4 5 6 8 8 12 15
3 5 12 15 15 12 14 16 17 13 12 10 9 10 10 10 8 7 6 7 8 8 6 6 6 4 3 3 3 3 2 2 2 3 4 4 4 5 5 5 6 7 8 10
9 11 14 17 16 14 14 16 16 12 10 9 9 8 8 9 8 7 6 7 7 6 5 6 5 4 3 3 3 2 3 6 5 3 4 4 4 5 5 5 6 7 8 8
14 9 12 14 14 12 12 13 14 13 11 10 9 9 9 9 8 7 5 5 6 6 5 5 5 4 3 3 2 2 2 4 6 4 4 4 5 4 5 6 6 7 7 10
8 12 15 20 18 15 13 11 11 12 11 11 10 9 9 8 8 7 6 6 7 6 4 4 4 3 3 2 1 1 2 3 3 3 4 4 5 4 5 6 7 7 7 10
12 14 15 14 14 14 13 11 10 10 10 10 10 9 7 7 7 7 6 7 6 5 2 2 5 4 2 2 3 2 2 3 4 4 4 6 5 5 5 6 7 7 8 8
13 15 17 15 14 14 13 11 11 10 8 9 10 9 8 7 7 7 8 6 3 3 4 3 3 2 1 3 4 3 3 4 4 4 5 5 5 5 6 8 8 8 8 8
14 15 17 16 13 11 11 11 12 10 9 9 9 9 9 7 7 7 7 6 3 4 4 3 2 1 1 2 3 3 3 3 3 4 5 5 6 6 6 6 7 8 8 9
14 15 16 16 16 12 9 9 10 10 9 9 9 10 9 8 7 6 5 4 3 4 3 2 1 2 3 4 3 3 3 3 4 4 4 5 6 6 7 7 8 8 8 8
14 15 16 15 15 14 11 9 9 9 10 9 9 9 8 7 5 5 5 3 3 5 3 2 3 5 6 4 2 3 3 4 4 5 5 6 6 6 6 7 8 8 8 8
15 15 14 14 14 14 12 8 8 8 8 8 8 8 8 6 5 4 4 5 6 5 3 3 5 6 5 3 3 3 4 4 5 5 5 7 6 6 6 7 8 8 8 9
15 15 14 13 12 10 11 10 10 9 9 8 7 5 4 4 5 4 4 4 6 5 3 5 7 7 4 3 3 3 4 4 6 5 5 5 5 6 6 7 8 9 8 8
14 11 9 9 10 9 9 9 8 8 8 7 6 4 4 5 6 5 4 4 3 4 2 3 4 4 3 4 4 4 4 5 6 6 7 6 6 7 7 7 8 8 8 8
13 12 10 9 8 7 7 8 8 8 7 8 7 5 4 4 4 4 3 3 2 2 2 3 4 4 4 4 4 4 4 4 7 9 7 6 6 6 7 8 7 8 8 9
Wind_Direction
249 233 197 209 182 181 194 178 201 244 239 260 259 185 169 159 155 154 158 162 164 159 152 146 139 134 132 129 127 125 124 126 134 134 131 117 94 60 31 12 357 350 346 335
267 217 178 188 171 171 172 159 217 266 276 257 221 118 135 152 157 163 167 166 162 156 149 146 141 138 134 132 130 129 127 130 132 129 118 103 77 43 24 11 358 352 343 330
317 120 142 176 174 179 193 212 205 228 237 186 112 114 143 162 168 171 169 164 159 154 148 141 141 141 137 133 129 122 121 126 131 124 111 90 67 40 18 360 348 338 331 325
321 125 96 228 172 177 193 209 212 210 152 102 119 101 51 36 157 151 147 143 138 131 124 121 117 119 118 120 121 121 123 127 125 114 100 76 53 29 353 342 338 324 314 311
357 329 25 34 116 173 195 204 221 102 98 105 136 95 32 16 64 102 106 109 113 117 119 116 118 122 120 118 116 115 119 119 114 109 98 68 32 1 343 332 319 306 301 304
348 4 32 305 342 69 92 292 158 144 153 160 159 121 159 32 77 86 89 97 104 107 110 113 117 121 119 117 115 117 120 114 108 102 89 53 14 353 330 314 302 305 308 311
337 339 283 269 309 99 151 239 155 158 163 155 130 128 127 104 83 87 92 98 102 105 109 118 120 116 113 114 117 122 117 110 97 75 56 43 17 350 328 321 316 313 308 305
163 221 267 291 345 182 193 113 112 119 113 105 107 103 103 104 103 103 100 100 103 106 108 111 114 114 114 117 128 122 111 96 75 53 39 34 11 346 331 321 318 313 311 312
189 212 232 338 359 4 120 114 112 111 121 122 118 116 115 114 113 109 108 106 106 111 109 103 106 116 121 135 132 114 97 78 56 41 39 26 4 334 323 324 324 322 324 322
227 266 26 38 52 50 64 90 102 118 126 126 123 124 121 122 120 116 113 115 115 111 109 108 109 113 124 133 122 109 94 74 52 30 14 355 333 318 320 321 323 324 323 315
257 290 39 258 187 120 95 99 98 95 111 122 123 124 128 128 126 125 123 120 123 125 124 126 124 117 118 117 112 104 92 68 34 3 337 329 333 328 327 323 325 326 316 303
211 195 177 191 158 137 124 123 124 118 106 95 117 122 121 121 123 124 126 126 123 124 128 132 126 120 114 108 108 106 92 48 338 341 337 333 326 329 343 339 335 333 331 326
157 116 103 107 104 107 115 118 115 114 117 112 103 109 113 114 114 119 121 130 137 139 137 135 127 122 121 109 102 104 109 4 351 355 337 328 334 333 324 326 328 331 333 330
120 106 100 114 117 115 112 108 101 93 94 104 107 103 106 108 113 115 123 131 127 124 127 129 127 126 120 112 109 101 49 14 8 336 331 332 326 311 305 311 319 322 323 324
55 90 127 122 113 113 116 113 105 104 106 101 103 114 118 118 119 118 115 111 109 113 122 127 124 125 126 120 104 74 35 356 350 347 337 331 320 308 302 305 312 315 316 321
91 93 112 119 123 125 123 120 119 122 122 121 118 114 112 112 112 109 110 118 121 130 133 126 125 136 126 107 92 64 20 359 359 351 330 325 312 305 308 315 318 317 317 319
122 124 125 128 133 131 128 130 134 135 133 131 129 124 117 112 108 108 110 110 111 117 123 126 130 128 115 107 93 54 11 351 349 340 321 308 303 307 315 317 314 310 312 320
115 132 143 147 141 133 125 123 129 133 134 131 126 123 124 127 131 127 118 109 99 91 93 114 122 116 106 103 84 32 360 334 321 315 309 307 315 322 316 311 308 309 314 323
117 120 120 124 127 125 127 127 125 122 123 126 126 126 126 125 124 125 122 112 114 114 116 117 115 108 82 17 36 28 345 328 320 316 314 319 324 314 308 308 310 315 320 325
110 115 116 114 118 124 122 120 119 116 118 118 116 114 112 117 120 115 105 97 102 129 139 129 111 101 55 352 10 10 345 336 327 321 318 320 315 312 312 315 320 322 323 321
122 122 119 115 107 104 111 119 122 120 117 119 120 120 116 111 109 110 108 98 92 116 119 113 112 101 328 10 25 1 348 339 325 313 312 316 315 312 309 312 318 320 317 315
129 125 120 118 114 104 96 101 111 115 113 109 108 110 108 106 103 92 88 114 134 109 91 70 25 321 3 36 19 359 349 337 322 317 314 310 308 307 310 316 314 310 308 307
123 120 119 120 120 113 99 93 100 109 113 117 118 117 114 114 115 120 123 118 103 91 79 19 355 7 40 32 5 351 340 331 323 318 311 305 306 309 310 308 308 307 306 305
118 114 112 114 113 111 104 96 92 93 96 97 101 111 119 113 79 61 98 110 98 87 59 21 15 17 31 8 349 339 331 321 311 303 303 311 311 302 297 299 303 305 303 304
115 116 119 120 114 112 113 112 104 98 97 91 84 78 77 84 104 108 89 82 87 79 41 15 14 16 12 349 334 328 322 314 310 311 304 296 294 294 296 299 298 300 306 307
119 115 110 109 117 124 128 125 122 122 117 106 88 77 74 74 87 94 91 83 68 61 36 3 358 3 352 333 329 328 320 317 318 312 307 301 298 298 298 298 299 301 299 297
104 107 106 103 105 116 124 127 127 124 122 119 111 99 93 89 91 92 86 74 58 38 12 359 353 349 338 332 330 318 309 309 314 314 309 301 296 294 296 298 299 297 296 294